Location: Newark
(22.3060°N, 114.2134°E)
Time: 20:43:49
(UTC+00:00)

Vanguard 2 - Pass Details

Date: 10 August 2021
Orbit: 553 x 2937 km, 32.9° (Epoch: 27 September)

Event Time Altitude Azimuth Distance (km) Brightness Sun altitude
Rises 16:35:06 0° 247° (WSW) 4,697 - -52.3°
Reaches altitude 10° 16:38:52 10° 249° (WSW) 3,322 - -52.3°
Maximum altitude 16:46:33 75° 334° (NNW) 912 - -52.1°
Drops below altitude 10° 16:51:23 10° 60° (ENE) 2,128 - -51.9°
Sets 16:53:21 0° 62° (ENE) 2,907 - -51.9°
